Regional Weather Roundup
Issued by NWS

Home | Current Version | Previous Version | Text Only | Print | Product List | Glossary On
Versions: 1 2 3 4 5 6 7 8 9 10 11 12 13 14 15 16 17 18 19 20 21 22 23 24 25 26 27 28 29 30 31 32 33 34 35 36 37 38 39 40 41 42 43 44 45 46 47 48 49 50
000
ASUS43 KMPX 230401
RWRMN
WEATHER ROUNDUP FOR MINNESOTA
NATIONAL WEATHER SERVICE TWIN CITIES/CHANHASSEN MN
1100 PM CDT FRI SEP 22 2017


NOTE: "FAIR" INDICATES FEW OR NO CLOUDS BELOW 12,000 FEET WITH NO
SIGNIFICANT WEATHER AND/OR OBSTRUCTIONS TO VISIBILITY. N/A MEANS
CURRENT SKY AND/OR WEATHER CONDITIONS ARE NOT AVAILABLE.

MNZ060>063-068>070-230500-
   Twin Cities Metro

CITY           SKY/WX    TMP DP  RH WIND       PRES   REMARKS
TWIN CITIES    CLOUDY    85  69  58 S18G26    29.84S
ST PAUL        MOCLDY    79  69  71 SE12      29.84S
CRYSTAL        CLOUDY    83  66  56 S17G25    29.82R
BLAINE         MOCLDY    84  68  58 S15G25    29.83R
LAKEVILLE      CLOUDY    81  68  65 S14G26    29.84S
EDEN PRAIRIE   CLOUDY    82  69  64 SW10G20   29.84R
SOUTH ST PAUL  CLOUDY    81  66  61 SE7       29.84S
LAKE ELMO      FAIR      79  68  69 S10       29.86S
$$
MNZ001>005-007-008-013>017-022>024-027-028-230500-
   Northwest Minnesota

CITY           SKY/WX    TMP DP  RH WIND       PRES   REMARKS
BEMIDJI        CLOUDY    78  71  79 S13       29.66F
HALLOCK          N/A     55  52  88 N20G26    29.75R
ROSEAU         CLOUDY    63  57  82 NW17      29.67R
WARROAD        LGT RAIN  64  61  88 N7        29.67S
THIEF RVR FALL MOCLDY    63  61  94 NW13      29.70R
CROOKSTON      CLOUDY    55  54  94 N14G24    29.73R
FOSSTON        CLEAR     75  68  78 W16       29.67R
DETROIT LAKES  CLOUDY    75  63  64 W10       29.73R
MOORHEAD       CLOUDY    61  54  77 NW12      29.76R
PARK RAPIDS    MOCLDY    80  71  74 S15       29.70S
MAHNOMEN       FAIR      65  63  91 W18       29.70R
$$
MNZ006-009>011-018-025>026-230500-
   North Central Minnesota

CITY           SKY/WX    TMP DP  RH WIND       PRES   REMARKS
BAUDETTE       TSTM      67  67 100 S9        29.64F
FLAG ISLAND    CLOUDY    61  61 100 NE14      29.66F
INTL FALLS     CLOUDY    72  69  90 SE8       29.66F
WASKISH        CLOUDY    75  72  88 S8        29.64F
BIG FORK       PTCLDY    75  72  88 S10       29.69F
LONGVILLE      CLOUDY    79  70  73 S13G20    29.71F
GRAND RAPIDS   CLOUDY    78  70  76 S14G21    29.75R
CRANE LAKE     CLOUDY    72  68  88 SE6       29.72F
ORR            PTCLDY    75  66  73 S12G20    29.68F
COOK           PTCLDY    75  68  78 S14G21    29.72F
WALKER         FAIR      80  70  71 S12G22    29.69S
$$
MNZ012-019>021-037-230500-
   Northeast Minnesota

CITY           SKY/WX    TMP DP  RH WIND       PRES   REMARKS
DULUTH         CLOUDY    70  65  84 S12       29.81S
ELY            CLEAR     70  64  83 S10       29.78R
HIBBING        CLEAR     71  68  90 SE7       29.76S
EVELETH        CLEAR     73  65  77 S8        29.78S
DULUTH HARBOR  CLOUDY    63  61  94 NE3       29.80F
TWO HARBORS    CLEAR     64  61  88 NE3       29.79F
SILVER BAY     CLEAR     63  61  94 N3        29.79F
GRAND MARAIS     N/A     67  62  84 NE7       29.80F
$$
MNZ029>031-032-039>041-046>048-054>057-064-230500-
   West Central Minnesota

CITY           SKY/WX    TMP DP  RH WIND       PRES   REMARKS
FERGUS FALLS   MOCLDY    72  63  73 SW8       29.74R
WHEATON        MOCLDY    72  61  68 W7        29.77R
MORRIS         CLOUDY    73  64  73 S16G25    29.76R
ALEXANDRIA     MOCLDY    79  65  62 SW22G31   29.82
ELBOW LAKE     FAIR      72  65  79 CALM      29.79R
WADENA         MOCLDY    79  70  73 S13G18    29.72S
GLENWOOD       CLOUDY    72  66  83 S25G35    29.86R
APPLETON       CLOUDY    73  66  78 SE10      29.76F
BENSON         CLOUDY    72  66  83 CALM      29.83S
ORTONVILLE     TSTM      72  64  78 W6        29.77R
MADISON        CLOUDY    73  73 100 SE7       29.76S
WILLMAR        MOCLDY    73  66  78 CALM      29.84R
$$
MNZ033>034-036-042>043-049>051-058-059-230500-
   Central Minnesota

CITY           SKY/WX    TMP DP  RH WIND       PRES   REMARKS
ST CLOUD       CLOUDY    81  69  67 S14       29.81R
SAUK CENTRE    FAIR      81  69  67 SW16      29.81R
PAYNESVILLE    CLOUDY    81  66  61 W24G40    29.87R
AITKIN         PTCLDY    79  66  65 S15G21    29.75S
PINE RIVER     CLOUDY    75  68  78 S10G17    29.76F
BRAINERD       CLOUDY    79  69  71 S14       29.75S
STAPLES        MOCLDY    79  68  69 S12G18    29.73S
LITTLE FALLS   CLOUDY    81  59  47 S13G20    29.78R
LITCHFIELD     CLOUDY    82  68  61 S5        29.83R
BUFFALO        MOCLDY    82  67  60 S9        29.84R
MAPLE LAKE     CLOUDY    81  69  67 S7        29.84R
HUTCHINSON     CLEAR     81  69  67 S7        29.84R
$$
MNZ037-044-045-052-053-230500-
   East Central Minnesota

CITY           SKY/WX    TMP DP  RH WIND       PRES   REMARKS
PRINCETON      CLOUDY    82  70  65 S12       29.82R
MORA           MOCLDY    79  64  61 S10       29.82S
RUSH CITY      MOCLDY    81  67  62 S10       29.83R
MOOSE LAKE     PTCLDY    79  66  65 S8        29.78S
HINCKLEY       FAIR      79  68  69 S9        29.81S
CLOQUET        PTCLDY    66  61  82 SE3       29.81S
MCGREGOR       MOCLDY    79  68  69 S14G21    29.77S
$$
MNZ071>073-080-081-089-090-097-098-230500-
   Southwest Minnesota

CITY           SKY/WX    TMP DP  RH WIND       PRES   REMARKS
MONTEVIDEO     LGT RAIN  73  72  94 S3        29.78F
GRANITE FALLS  CLOUDY    82  70  66 SE7       29.80S
CANBY          CLOUDY    71  68  89 S3        29.78R
MARSHALL       CLOUDY    82  68  62 S22G28    29.77F
REDWOOD FALLS  CLOUDY    82  66  58 S16       29.80R
OLIVIA         CLOUDY    81  64  57 S13G18    29.81R
PIPESTONE      CLOUDY    79  66  65 S7        29.83R
WINDOM         CLEAR     81  66  61 S14G21    29.84S
WORTHINGTON    PTCLDY    79  68  69 S13G21    29.86R
JACKSON        CLOUDY    79  64  61 S15G22    29.88R
TRACY          PTCLDY    81  69  67 S14G20    29.82R
SLAYTON        PTCLDY    80  62  55 S13       29.85R
$$
MNZ065>067-074>077-082>085-091>093-230500-
   South Central Minnesota

CITY           SKY/WX    TMP DP  RH WIND       PRES   REMARKS
MANKATO        PTCLDY    79  68  69 S13G20    29.85R
NEW ULM        MOCLDY    81  66  61 S14G21    29.83R
ST JAMES       PTCLDY    81  66  61 S16       29.85R
FAIRMONT       CLEAR     79  68  69 S21       29.86R
FARIBAULT      PTCLDY    79  68  69 S12G17    29.87S
OWATONNA       PTCLDY    79  68  69 S16G22    29.89R
WASECA         PTCLDY    77  64  65 S15G22    29.89S
ALBERT LEA     CLEAR     82  70  65 S10G18    29.91R
$$
MNZ078>079-086>088-094>096-230500-
   Southeast Minnesota

CITY           SKY/WX    TMP DP  RH WIND       PRES   REMARKS
ROCHESTER      CLEAR     77  67  71 S16       29.93R
RED WING       PTCLDY    81  64  57 E5        29.87R
STANTON        CLOUDY    80  67  65 S12G17    29.85R
DODGE CENTER   PTCLDY    79  66  65 S15G23    29.92R
WINONA         CLOUDY    81  64  57 S6        29.92R
AUSTIN         CLEAR     79  66  65 S10       29.93R
PRESTON        CLEAR     77  64  65 S14G20    29.95R
$$
ABBREVIATIONS USED IN REMARKS
   TC - TEMPERATURES IN CELSIUS
  WCI - WIND CHILL INDEX
   HX - HEAT INDEX
  VSB - VISIBILITY
$$




USA.gov is the U.S. government's official web portal to all federal, state and local government web resources and services.